Showing default

SAOCOM 1-A, 43641

Orbit data source: Space-Track

SAOCOM 1-A, 43641 is a payload satellite owned by CONAE Tabanera (AR) in SSO that was launched on Mon, 08 Oct 2018 UTC via an FALCON 9 launch vehicle from the Air Force Western Test Range (AFWTR). Payload-class satellites include a variety of spacecraft equipped with specific instruments for various scientific and technological missions. These include communications satellites like Starlink; space stations such as the ISS; scientific satellites like the Hubble; Earth observation satellites from companies like Planet Labs, Umbra, and HawkEye 360; GPS; miniature CubeSats for education and research; and military/defense satellites.

Loading next visibility...
Identifier
43641, 2018-076A
Orbit
SSO
Last TLE update
8 hours ago
Origin
Manufacturer
INVAP
Mission
Operational Civil Radar Imaging
Bus & Motor
SAOCOM, Unknown motor
Mass
3,000 kg wet, ~2,700 kg dry
Launch date (UTC)
2018-10-08 (7 years ago)
Launch vehicle
FALCON 9
Launch site
Air Force Western Test Range (AFWTR)
Object type
Payload
Rocket body
Debris
Shape & HBR
Cyl + 2 Pan, 10 m
Radar Cross Section
19.777 m², Large (>1 m²)

Expand to show TLE details & history

TLE from 8 hours ago
0 SAOCOM 1-A
1 43641U 18076A   25192.14026092  .00000224  00000-0  34724-4 0  9995
2 43641  97.8887  18.7735 0001416  91.7044 268.4331 14.82159067365582
Epoch: 2025-07-11T03:21Z
TLE epoch observation values (Epoch: 2025-07-11T03:21:58.543Z)
Latitude
-0.00006°
Longitude
38.98312°
Altitude
625.569 km
Speed
7.546 km/s
True Right ascension
01h 15m 05s
True Declination
0° 00' 00"
Sunlit
Object was in daylight at epoch
Visualization orbit readout
Latitude
-69.51944°
Longitude
60.95505°
Altitude
649.485 km
Speed
7.531 km/s
Apparent Right ascension
09h 28m 37s
Apparent Declination
-70° 27' 36"
Sunlit
Object is in daylight
Visualization observer readout
Local Sidereal Time
23:26:52
Azimuth
162.893° S
Elevation
-55.878°
Doppler factor
1
Orbital elements
Apogee altitude
620.546 km
Perigee altitude
618.564 km
Semi-major axis
6,997.692 km
Eccentricity
0.00014
Inclination
97.8887°
RAAN
18.7735°
Arg. of periapsis
91.7044°
True anomaly
Unknown
Mean anomaly
268.4331°
Eccentric anomaly
Unknown
Mean motion
3.70775 °/min
Orbital period
97.09 mins
BSTAR
0.000034724
Loading maneuver chart data...
Loading SW <> Apogee altitude chart data...
Loading historical data...
Loading historical data...
Loading historical data...
Loading historical data...
Loading historical data...
Loading historical data...
Loading historical data...
Other satellites on launch #76 in the year 2018 (2018-10-08 UTC)

SAOCOM 1-A Visibility forecast

Observer location: undefined°, undefined°

Span
Click to sort rows by Start time (UTC) header in descending order
Start Az.
Max El. time (UTC)
Max El. Az.
Max El.
End time (UTC)
End Az.
6 mins2025-07-11 11:36:52.548Z116.352° SE2025-07-11 11:39:52.548Z64.99° ENE22.088°2025-07-11 11:42:52.548Z17.493° NNE
5 mins2025-07-11 13:13:52.548Z223.415° SW2025-07-11 13:15:52.548Z267.008° W25.313°2025-07-11 13:18:52.548Z318.971° NNW
6 mins2025-07-12 01:00:52.548Z30.44° NE2025-07-12 01:03:52.548Z111.468° ESE37.539°2025-07-12 01:06:52.548Z172.007° S
|